Lid_Strength_Index
15 16 16 16 16 16 16 16 16 15 15 15 15 14 14 14 13 12 12 12 13 12 12 12 12 11 12 12 11 11 11 11 13 12 10 10 10 10 9 8 8 8 8
16 16 16 16 16 16 16 16 16 16 15 15 15 14 14 13 13 12 12 12 13 13 12 13 13 13 13 13 13 13 13 12 13 15 13 12 12 11 10 10 10 10 9
16 16 17 17 17 17 17 16 16 16 15 15 15 15 14 14 13 12 12 12 13 13 13 13 13 13 14 13 13 13 13 13 13 14 14 12 12 11 12 11 11 11 10
16 16 16 16 17 17 16 16 16 15 15 15 15 15 14 13 12 12 12 13 13 13 13 13 13 14 14 13 14 14 13 14 13 13 13 14 13 12 12 12 12 10 10
16 17 17 17 17 16 16 16 16 16 16 15 15 15 14 13 12 12 13 13 14 14 14 14 14 14 13 13 14 14 13 14 14 14 15 14 14 14 14 12 13 11 10
17 17 17 17 16 17 17 16 16 16 16 15 15 15 15 15 12 12 12 14 14 15 15 14 14 14 14 14 13 12 12 14 15 15 15 15 15 14 13 13 12 12 13
17 17 17 17 17 17 17 17 17 17 16 16 16 16 16 16 13 13 13 14 15 15 15 15 15 15 15 15 14 13 14 13 13 14 15 14 13 11 11 11 10 10 10
17 17 18 17 17 17 17 18 17 17 17 17 17 17 17 16 14 13 13 15 15 15 15 15 16 16 16 15 15 16 16 15 15 14 13 12 11 9 9 9 9 8 8
17 18 18 18 18 18 18 18 18 18 17 18 17 17 18 17 15 14 14 15 16 16 15 15 16 16 15 14 16 17 17 16 14 12 11 10 9 9 8 9 10 10 10
18 18 19 18 18 18 19 19 18 18 18 18 18 18 18 18 16 15 14 16 16 16 16 16 16 16 14 15 16 17 19 17 16 16 15 14 12 11 8 10 10 12 11
19 19 20 19 19 19 20 20 20 20 20 20 20 19 19 18 18 15 15 16 16 17 17 17 17 15 15 15 15 17 16 15 17 17 16 15 13 11 11 11 11 12 12
21 21 21 22 20 20 23 21 21 22 22 22 21 20 19 19 18 16 15 15 15 17 17 17 17 16 16 16 16 15 14 16 17 17 16 15 14 14 13 12 13 12 12
23 24 25 23 21 22 23 22 22 23 23 22 21 21 20 19 19 18 17 16 16 16 17 17 17 17 18 18 17 15 17 17 17 17 16 16 14 13 13 13 13 13 13
25 25 24 24 23 23 22 21 22 23 23 22 21 21 22 21 21 19 18 17 17 17 18 22 20 20 19 19 20 18 18 17 17 17 16 15 13 13 13 13 14 13 14
24 24 24 24 24 24 23 23 22 22 21 23 22 22 23 22 20 17 17 17 17 17 23 24 25 24 23 22 21 20 18 17 18 17 16 15 15 14 14 13 13 13 14
25 24 25 25 25 25 25 25 22 20 19 18 18 19 20 19 18 17 16 16 17 18 26 26 26 24 23 23 23 21 19 19 18 17 16 16 16 15 14 13 13 14 15
25 25 26 26 26 27 27 27 27 25 22 21 21 20 19 19 18 17 17 18 20 22 27 27 26 24 24 23 22 22 21 19 18 17 17 17 16 15 15 15 15 14 15
30 28 28 28 28 29 29 29 28 27 26 26 25 22 21 20 19 18 18 23 27 26 28 27 26 25 24 23 23 22 21 19 18 18 17 17 16 16 16 16 15 16 16
30 30 30 31 31 30 29 28 28 28 27 27 28 25 25 22 20 20 21 28 30 28 27 26 26 26 24 23 23 22 20 19 19 19 18 17 17 17 17 16 16 17 16
31 30 30 30 30 29 28 28 28 28 28 28 29 29 29 27 27 28 28 30 29 28 27 27 26 25 25 24 23 21 20 20 20 20 19 18 17 17 17 17 17 18 17
30 30 29 29 29 29 28 28 27 28 28 29 29 29 21 26 30 31 31 29 29 29 28 28 26 26 25 23 22 21 21 21 21 21 19 18 18 18 17 18 18 18 19
28 28 29 29 28 28 28 27 28 28 29 30 30 30 23 31 32 31 30 29 28 28 28 27 27 26 24 24 23 22 22 22 21 21 20 19 18 18 18 19 19 19 19
29 29 29 28 27 27 28 29 29 30 31 31 31 32 33 31 30 30 29 28 27 27 27 28 27 26 24 24 22 22 22 22 21 20 21 19 19 18 18 19 19 20 19
28 28 27 27 27 28 28 29 30 30 30 32 34 34 31 29 30 29 28 27 27 27 27 27 27 26 25 24 23 22 22 21 21 20 19 19 19 19 19 19 20 20 19
27 27 27 27 27 27 28 29 30 30 30 32 32 32 30 29 29 28 27 27 28 28 27 26 25 25 25 25 25 25 24 22 22 20 19 18 19 19 20 19 20 20 20
27 27 27 27 28 28 29 29 30 30 32 32 30 30 29 28 27 27 27 27 28 27 27 25 24 26 26 24 24 23 21 17 17 16 15 19 20 20 19 20 20 20 20